Voinjama Airport

Jump to: basic info | weather | comments

Related pages: nearby airports | nearby navaids | notams | map

Basic information (top)

Codes: VOI GLVA
Location: lon 8.400000, lat -9.767000, elev 1,400 ft / 427 m msl
Status: small_airport
Scheduled airline service: no
Links: Wikipedia Mobile

Weather (top)

Current conditions for Man Airport 146nm (271km) ESE (rec'd 2013/11/21 04:00Z):

DIMN 210400Z NOL

Airport forecast for Lungi International Airport 204nm (378km) W (rec'd 2014/07/27 12:00Z):

TAF GFLL 271000Z 2712/2818 21005KT 9000 -RA BKN010 FEW026CB 
      TEMPO 2717/2722 28006KT 9999 TS BKN010 FEW027CB 
      BECMG 2801/2803 30008KT 6000 TSRA BKN009 BKN010 FEW027CB 
      TEMPO 2808/2813 27006KT 9999 BKN011 SCT013

Latest comments (top)

No comments yet for Voinjama Airport

More... (top)

See also NOTAMs and nearby airports and navaids, or visit the Voinjama Airport page at the main OurAirports website..